RH
59 85 78 90 90 90 85 77 74 76 80 83 84 83 80 82 77 62 66 70 66 76 87 84 79 83 87 81 76 68 55 68 80 76 62 59 67 92 72 49 60 63 68
58 77 88 89 85 78 76 74 76 79 81 84 88 89 88 85 84 79 65 63 74 81 90 90 80 73 64 62 57 54 56 53 52 66 73 72 76 72 80 75 48 66 45
71 79 89 86 78 79 79 79 82 86 89 90 92 92 92 93 94 93 91 84 71 70 74 82 94 87 81 77 77 76 59 54 54 47 45 54 66 73 73 85 80 57 53
76 78 85 86 87 90 90 94 95 94 93 91 89 89 93 92 90 92 95 96 93 92 88 74 72 84 90 88 87 86 82 77 56 52 60 50 48 61 65 68 87 83 68
90 98 98 95 97 98 93 91 88 86 84 82 81 83 83 82 81 81 80 83 89 92 93 95 92 88 81 78 83 86 90 85 82 75 64 55 56 53 60 67 80 92 88
89 90 98 94 91 88 85 82 79 75 72 69 68 68 72 73 71 66 63 64 70 77 83 87 89 94 94 95 91 90 87 88 91 86 70 65 63 60 63 66 69 79 88
79 85 93 89 85 79 72 65 58 53 50 45 44 43 43 44 45 43 42 43 45 48 53 60 70 82 88 91 93 93 93 92 91 84 75 68 70 65 62 56 81 90 93
75 77 82 72 62 54 48 43 36 28 27 26 26 27 26 27 28 28 28 28 28 28 29 31 38 49 59 70 80 86 89 91 95 83 79 77 73 74 76 67 72 83 91
59 57 55 56 42 32 26 24 25 25 26 26 29 31 29 31 33 32 38 37 37 32 33 34 33 32 30 36 49 61 69 78 84 87 79 80 81 78 79 82 97 92 88
52 50 48 43 40 42 48 24 25 29 30 32 35 37 47 56 59 61 46 43 44 44 43 42 40 38 35 33 33 38 48 58 61 79 72 81 85 85 85 97 94 97 93
52 49 44 41 41 41 46 40 49 45 48 51 55 53 50 52 57 56 55 46 46 44 50 48 48 49 50 47 45 45 40 41 40 48 60 75 83 86 90 98 95 96 97
48 50 52 52 48 45 42 45 49 52 54 54 55 54 50 50 56 58 57 56 59 55 58 57 58 55 54 53 49 47 43 40 42 42 46 65 76 83 99 92 88 90 92
46 49 54 55 53 47 51 46 47 49 52 55 58 54 50 47 51 50 51 54 56 52 52 52 51 51 56 57 55 52 50 47 44 43 47 60 64 98 95 91 86 88 96
48 52 56 56 56 57 53 50 53 55 57 58 58 54 50 50 50 49 50 52 52 53 52 51 51 48 50 51 56 54 52 52 48 46 51 66 71 87 99 99 96 95 96
47 53 57 57 57 58 60 57 56 54 55 56 57 59 57 52 50 51 50 50 50 51 48 47 47 48 48 48 52 50 51 54 56 54 54 68 67 82 95 93 92 92 90
43 50 57 58 59 61 60 62 58 55 57 56 59 61 56 54 52 52 46 45 43 44 43 41 42 44 45 48 49 45 48 53 55 58 59 74 75 80 100 100 100 98 96
39 50 55 60 59 58 63 61 59 59 55 55 59 61 58 56 52 49 46 45 44 45 46 45 42 45 45 44 43 44 48 51 55 60 65 68 94 88 99 97 94 94 98
43 50 56 54 59 57 61 61 56 57 54 54 56 56 58 53 53 47 48 47 48 48 48 48 43 43 45 43 46 50 59 60 60 62 72 79 81 88 97 88 89 97 100
43 47 59 58 52 52 57 60 61 61 55 56 54 54 59 56 51 48 51 53 52 51 48 48 46 45 45 44 44 56 60 60 62 65 81 80 82 81 79 80 85 76 84
41 45 52 55 51 52 58 60 58 57 58 58 56 55 57 52 54 51 49 50 53 50 48 47 48 48 46 48 50 56 62 63 68 74 77 77 79 75 74 73 70 74 81
48 47 51 51 54 54 53 50 49 46 54 57 60 63 59 58 58 54 50 50 50 48 48 47 48 49 46 51 48 46 60 66 66 69 69 68 69 72 72 70 70 70 74
49 48 50 50 53 54 53 51 54 53 53 56 62 65 63 62 63 53 53 51 52 52 48 51 54 54 48 52 53 50 46 53 63 62 64 65 63 67 71 70 68 69 68
46 47 49 50 52 55 58 61 60 61 58 62 60 63 65 64 65 48 57 56 54 56 52 54 53 55 56 52 56 48 48 48 48 51 62 62 62 64 69 71 67 66 63
46 48 49 53 56 58 63 60 54 49 48 47 54 55 63 67 66 67 56 59 59 57 54 52 44 59 56 53 55 51 54 53 55 54 49 50 59 58 69 68 65 66 60
45 53 55 56 58 57 63 61 58 54 52 56 57 58 60 61 65 66 66 62 61 58 53 54 53 50 55 54 52 55 49 45 47 55 58 46 44 46 68 69 69 66 57
46 58 62 59 58 59 62 63 62 62 60 58 58 58 58 56 59 64 65 64 62 58 55 53 52 54 57 56 56 55 50 45 46 53 52 47 46 44 49 65 70 67 59
Wind_Speed
11 12 12 11 11 10 8 8 8 8 7 7 7 7 8 8 8 8 7 7 6 6 7 6 5 6 6 6 6 6 5 4 4 4 3 3 3 3 4 5 5 4 2
15 14 12 11 9 8 8 8 8 7 7 6 6 6 6 7 7 7 6 5 5 5 6 7 5 7 6 6 6 6 6 5 5 5 4 4 4 4 4 5 3 4 3
14 13 12 10 10 9 8 8 7 6 6 6 5 6 6 6 6 6 5 5 5 5 5 4 5 7 7 7 7 7 7 7 7 7 6 5 7 9 7 6 6 5 4
13 13 12 10 10 9 8 8 8 7 6 5 5 6 6 6 6 6 6 5 5 6 7 7 8 8 9 9 9 8 8 8 8 9 7 8 7 9 10 7 6 6 6
17 17 15 14 13 11 9 7 6 5 5 5 5 5 5 6 6 6 6 6 6 7 7 9 10 10 11 11 10 10 10 10 10 10 9 9 8 8 11 9 6 8 11
17 16 14 12 11 10 7 6 6 5 4 4 4 4 4 5 6 7 7 7 7 8 8 9 10 10 10 11 12 12 12 11 12 10 12 9 9 10 13 11 10 9 9
16 14 13 11 9 8 6 5 4 3 3 3 3 4 5 6 7 9 9 10 11 11 12 12 12 11 12 12 11 12 13 12 12 12 13 13 10 11 14 12 11 10 9
14 11 12 10 7 6 5 4 3 3 3 4 5 5 6 7 9 10 11 11 12 13 13 14 14 14 14 13 13 13 13 12 12 14 14 16 14 15 15 12 11 12 12
12 10 9 9 7 4 4 3 4 4 4 5 5 6 7 8 9 9 9 10 11 12 14 14 15 16 17 16 15 15 14 14 14 14 15 14 15 14 14 13 13 13 13
11 9 8 8 6 6 5 4 5 5 6 7 8 9 11 13 14 14 9 11 12 12 12 13 13 14 15 15 15 16 16 15 15 14 17 17 15 17 15 14 16 16 15
9 8 7 7 6 5 5 7 9 8 11 12 11 12 10 7 8 7 11 13 12 14 13 15 14 15 15 13 14 14 14 12 13 13 11 13 12 13 13 14 15 16 16
9 7 6 7 5 5 5 4 4 5 6 7 7 8 7 7 9 10 12 16 17 17 16 18 18 16 14 12 11 13 10 10 11 11 12 10 13 15 13 14 14 14 14
9 7 6 6 5 4 4 4 3 4 4 5 8 8 7 7 8 8 9 11 12 13 12 13 13 12 13 12 12 11 11 11 10 10 11 12 16 10 10 11 12 12 11
10 8 6 5 4 5 4 4 4 4 4 5 7 9 7 7 8 9 10 11 11 12 13 13 13 14 13 12 12 12 11 10 9 9 9 10 11 9 9 9 9 10 10
11 8 6 5 4 4 4 4 4 4 4 5 6 7 8 8 8 8 9 10 10 12 12 13 14 14 14 13 12 12 11 10 9 7 6 8 9 8 9 9 10 10 10
11 9 7 5 4 4 4 3 3 3 4 4 5 6 7 7 7 8 9 9 10 11 12 13 13 14 13 12 12 12 10 9 8 7 5 5 6 5 14 14 13 13 13
11 10 8 6 4 3 3 3 2 3 3 3 4 5 6 6 7 8 8 9 10 11 12 12 12 13 13 13 12 11 10 8 6 5 4 4 7 9 7 7 7 9 12
11 10 8 6 5 4 3 2 2 1 1 2 2 3 5 6 7 7 7 8 10 10 11 12 13 13 13 13 12 10 9 6 5 5 5 7 10 9 8 12 9 7 11
10 10 9 7 5 4 3 2 2 1 1 0 1 3 4 5 6 6 7 8 9 10 10 12 13 13 13 15 12 7 6 6 5 7 9 7 6 6 5 8 10 12 10
10 9 8 7 6 5 3 2 1 2 1 1 1 2 3 3 4 5 5 7 8 9 10 11 12 11 11 14 12 7 5 5 6 5 5 6 8 9 11 12 11 11 17
10 10 10 9 7 5 3 2 2 2 2 2 3 3 3 3 3 4 4 6 7 7 9 9 10 11 9 13 9 11 5 2 0 2 3 4 5 6 8 9 10 9 8
12 12 11 9 8 6 4 2 1 2 3 4 5 5 5 4 4 4 4 5 5 6 7 8 9 10 8 11 10 10 3 5 3 1 3 6 7 7 8 9 10 10 11
14 13 12 10 9 7 5 3 2 2 4 4 5 5 7 6 7 7 5 5 5 5 5 6 6 6 6 7 7 4 3 3 12 4 1 4 6 8 7 7 8 10 11
14 13 12 13 10 7 6 5 5 5 6 5 6 7 8 9 9 9 8 7 6 6 6 5 5 4 5 6 5 3 4 7 3 4 3 6 3 5 5 6 7 8 9
13 15 14 12 10 8 7 6 5 5 6 6 7 9 10 10 11 10 11 9 9 8 7 7 6 5 5 5 5 5 6 7 9 7 6 7 10 9 2 4 5 6 6
12 14 13 13 11 9 8 6 6 7 8 9 10 12 12 11 11 11 12 11 10 10 9 8 7 7 6 6 6 5 5 4 7 6 5 9 10 9 5 5 3 5 6
Wind_Direction
144 137 137 129 121 119 110 104 95 89 80 69 61 55 48 44 40 38 38 37 34 27 15 4 16 14 15 10 9 9 8 359 355 353 351 355 34 45 25 34 34 33 18
138 133 138 134 125 115 111 105 99 91 82 71 59 47 40 35 31 29 27 23 16 11 5 34 8 357 353 354 352 348 341 333 318 308 311 312 318 328 345 353 6 357 2
125 129 130 133 124 118 113 105 95 85 75 62 46 32 23 14 5 359 0 1 354 343 335 343 326 320 322 322 327 332 332 324 315 307 301 287 265 286 297 318 330 333 333
124 130 125 126 121 116 111 106 101 91 78 62 45 40 40 34 24 19 19 357 332 326 322 315 301 303 305 304 307 310 311 312 312 308 304 283 281 277 290 295 295 307 309
113 109 117 126 124 118 111 106 95 82 65 49 33 24 16 2 357 355 355 353 342 330 321 326 313 300 295 294 295 297 299 301 302 305 290 290 284 283 285 284 300 301 287
104 103 118 120 121 115 112 98 82 68 56 45 23 12 5 357 353 348 344 339 333 330 325 321 311 310 309 296 291 290 287 287 291 290 277 284 287 273 284 281 283 292 263
107 106 104 119 119 116 109 96 81 60 38 25 13 355 346 343 337 334 334 328 324 319 316 315 312 308 303 297 296 292 286 286 283 280 280 280 274 269 284 284 284 286 298
114 107 106 121 117 111 112 103 70 34 8 0 351 343 341 338 334 335 329 325 318 312 311 307 302 300 298 297 295 291 288 285 278 277 274 272 280 273 283 285 283 278 275
114 111 108 101 81 80 84 68 45 25 8 10 10 5 0 356 353 348 345 342 336 329 325 318 310 302 297 292 291 288 287 285 279 274 274 273 280 272 282 287 286 283 277
109 109 108 102 99 92 62 52 42 45 37 38 35 31 37 25 20 357 14 2 0 356 345 340 335 327 314 305 298 295 291 289 286 269 273 270 265 275 281 288 291 282 279
109 109 108 103 99 96 89 52 38 41 39 37 26 26 28 15 6 0 357 1 2 0 356 353 352 350 351 348 329 325 309 289 279 285 279 272 269 277 293 301 300 293 284
125 116 107 101 98 94 87 80 68 51 55 45 31 21 17 5 356 7 354 357 0 355 356 349 349 358 351 339 333 327 318 305 298 288 279 296 294 297 310 305 308 306 299
139 122 112 105 97 93 88 80 61 51 46 32 25 18 9 2 360 356 356 354 352 345 348 344 344 344 339 337 334 331 325 317 303 299 300 298 303 318 309 304 302 303 315
138 130 122 109 97 89 82 74 66 61 48 37 19 15 12 10 3 3 0 354 352 350 346 345 342 338 334 332 331 330 330 327 317 307 309 326 329 319 329 333 332 331 327
139 144 135 122 105 93 85 80 72 58 47 33 24 19 23 13 7 2 359 359 356 350 348 345 342 339 336 333 332 331 331 330 329 324 313 328 338 5 11 7 4 357 348
150 149 143 132 121 108 99 89 77 59 43 38 32 27 22 19 6 2 1 359 355 352 349 346 343 340 336 335 333 334 332 329 334 333 329 324 343 17 40 32 25 18 11
158 153 148 147 136 123 117 102 82 61 59 49 43 27 25 16 8 4 1 358 356 351 351 350 351 349 343 340 337 340 339 333 333 348 5 11 29 349 3 23 40 37 34
158 157 158 162 156 151 138 123 97 96 72 51 46 24 21 10 8 3 0 355 354 354 353 352 355 353 348 346 343 350 352 1 18 30 42 42 29 20 16 21 31 35 35
166 166 167 167 170 170 159 151 158 145 111 39 22 8 0 359 360 3 358 352 359 354 354 355 355 355 350 349 339 353 19 31 38 49 62 59 44 40 44 1 12 7 22
176 177 177 177 180 177 174 190 217 226 229 259 307 323 338 335 346 355 350 352 359 354 351 357 356 355 353 348 336 334 357 32 31 28 30 30 27 26 22 20 18 8 7
182 186 189 189 186 182 199 222 236 248 254 267 269 279 288 298 320 331 343 346 349 347 342 352 355 352 357 357 346 335 235 202 356 351 359 7 9 9 13 15 14 14 8
193 197 196 196 192 196 211 208 212 252 267 266 262 264 267 279 286 299 323 317 326 334 334 349 359 354 353 5 352 301 333 216 227 215 348 337 345 344 354 4 9 11 11
203 201 199 196 195 199 192 195 229 263 274 267 261 268 268 266 270 282 278 286 296 308 312 328 341 355 342 351 6 9 332 348 342 124 169 323 344 346 352 355 1 7 9
207 199 198 196 194 195 196 207 230 262 279 283 281 273 270 269 269 268 272 271 275 280 287 299 314 324 330 335 348 2 313 305 314 326 344 300 335 335 343 344 347 352 2
200 192 195 191 192 196 199 212 234 257 277 289 287 284 282 276 269 263 263 260 264 267 270 280 290 295 299 305 317 320 316 302 270 267 304 322 319 331 315 317 328 336 345
192 192 191 191 195 199 204 221 242 266 283 288 288 286 285 278 270 265 261 259 259 259 263 269 274 282 285 287 289 294 294 305 313 300 307 311 312 295 302 282 302 320 332